Other Public Products
Issued by NWS Charleston, SC

Current Version | Previous Version | Text Only | Print | Product List | Glossary Off
Versions: 1 2 3 4 5 6 7 8 9 10 11 12 13 14 15 16 17 18 19 20 21 22 23 24 25 26 27 28 29 30 31 32 33 34 35 36 37 38 39 40 41 42 43 44 45 46 47 48 49 50

000
FPUS82 KCHS 162212
OPUCHS

TEST...KCHS/KSAV Gateway Observations...TEST
National Weather Service Charleston SC
500 PM EST TUE JAN 16 2018

NOTE: "fair" indicates few or no clouds below 12,000 feet with no
significant weather and/or obstructions to visibility.

SCZ050-WAZ558-NCZ071-TXZ119-213-PAZ071-DCZ001-FLZ074-172-MI076-
NYZ176-178-MAZ016-IL014-TNZ027-NJZ106-GAZ044-MD014-162300-

...Gateway Observations for Charleston International...

CITY           SKY/WX    TMP DP  RH WIND       PRES   REMARKS
Chas Airport   MOCLDY    52  33  48 SE7       30.36S
Seattle        PTSUNNY   54  38  54 S13       30.23R
Charlotte      CLOUDY    48  25  40 SW7       30.32F
Dallas DFW     MOSUNNY   30   0  27 N18       30.68F WCI  18
Dallas Love    MOSUNNY   29   2  31 N16G25    30.71F WCI  17
Philladelphia  CLOUDY    43  30  60 NW3       30.37F
Wash National  CLOUDY    41  24  51 CALM      30.37R
Baltimore      CLOUDY    37  30  75 N3        30.36S
Miami          MOCLDY    72  53  51 NE9G18    30.20F
Detroit        FLURRIES  12   6  77 SW12      30.41R WCI  -2
Newark         CLOUDY    38  32  79 NE6       30.40F WCI  33
Laguardia      MOCLDY    32  26  78 NE9       30.41F WCI  24
J F K          MOCLDY    37  32  82 E7        30.42F WCI  32
Boston Logan   MOCLDY    31  26  82 SE5       30.46S WCI  26
Ft. Lauderdale FAIR      69  54  58 N14       30.20S
Chicago O`Hare MOCLDY    24  11  57 NW14      30.46R WCI  12
Chicago Midway FAIR      23  12  62 NW12      30.47R WCI  12
Houston Bush   CLOUDY    26  21  81 N18G24    30.64R WCI  13
Houston Hobby  LGTSLEET  27  23  85 N18       30.62R WCI  14
Nashville      FAIR      16   4  59 NW6       30.58S WCI   7
Atlanta        CLOUDY    48  32  53 SW10      30.32R

$$

GAZ044-118-TXZ119-213-NCZ071-DCZ001-MDZ014-506-PAZ021-071-NJZ106-
NYZ176-178-MAZ106-OHZ011-021-055-MIZ076-KYZ091-ILZ014-INZ047-
MNZ060-ONZ431-162300-

...Gateway Observations for Savannah International...

CITY           SKY/WX    TMP DP  RH WIND       PRES   REMARKS
Savannah Arpt  CLOUDY    54  31  41 E6        30.36R
Atlanta        CLOUDY    48  32  53 SW10      30.32R
Charlotte      CLOUDY    48  25  40 SW7       30.32F
Dallas DFW     MOSUNNY   30   0  27 N18       30.68F WCI  18
Houston Bush   CLOUDY    26  21  81 N18G24    30.64R WCI  13
Wash National  CLOUDY    41  24  51 CALM      30.37R
Wash Dulles    MOCLDY    36  23  59 NW3       30.35S
Baltimore      CLOUDY    37  30  75 N3        30.36S
Philadelphia   CLOUDY    43  30  60 NW3       30.37F
Newark         CLOUDY    38  32  79 NE6       30.40F WCI  33
Laguardia      MOCLDY    32  26  78 NE9       30.41F WCI  24
J F K          MOCLDY    37  32  82 E7        30.42F WCI  32
Boston         MOCLDY    31  26  82 SE5       30.46S WCI  26
Pittsburg      LGT SNOW  17  13  84 W7        30.35R FOG     WCI   8
Akron          MOCLDY     9   0  67 SW7       30.38R WCI  -2
Cleveland      CLOUDY    12   2  64 SW13      30.43S WCI  -3
Cincinnati     CLOUDY    11   2  67 SW8       30.49R WCI  -1
Columbus       MOCLDY     6  -2  70 W7        30.48R WCI  -5
Detroit        FLURRIES  12   6  77 SW12      30.41R WCI  -2
Chicago O`Hare MOCLDY    24  11  57 NW14      30.46R WCI  12
Minneapolis    FAIR       6  -2  69 W8        30.63S WCI  -7
Indianapolis   FLURRIES   6  -1  73 W13       30.53R WCI -10
Toronto Canada PTCLDY    25  14  63 SE5       30.34R WCI  19

$$




USA.gov is the U.S. government's official web portal to all federal, state and local government web resources and services.